No;Time;Interval(mi);Indoor Humidity(%);Indoor Temperature(�C);Outdoor Humidity(%);Outdoor Temperature(�C);Absolute Pressure(Hpa);Wind(km/h);Gust(km/h);Direction;Relative Pressure(Hpa);Dewpoint(�C);Windchill(�C);Hour Rainfall(mm);24 hour Rainfall(mm);Week Rainfall(mm);Month Rainfall(mm);Total Rainfall(mm);Wind Level(bft);Gust Level(bft)
1;01-08-2011 00:14;30;49;23.9;58;17.9;1011.1;0.0;0.0;E;1007.9;9.5;17.9;0.0;0.0;5.1;61.5;61.5;0;0
2;01-08-2011 00:44;30;49;23.8;58;18.1;1011.0;0.0;0.0;NW;1007.8;9.7;18.1;0.0;0.0;5.1;61.5;61.5;0;0
3;01-08-2011 01:14;30;50;23.6;61;17.4;1011.1;0.0;1.1;NW;1007.9;9.8;17.4;0.0;0.0;5.1;61.5;61.5;0;1
4;01-08-2011 01:44;30;50;23.5;64;16.9;1011.0;0.0;2.5;N;1007.8;10.1;16.9;0.0;0.0;5.1;61.5;61.5;0;1
5;01-08-2011 02:14;30;50;23.4;62;17.2;1011.0;1.1;2.5;W;1007.8;9.9;17.2;0.0;0.0;5.1;61.5;61.5;1;1
6;01-08-2011 02:44;30;50;23.4;64;16.8;1010.9;0.0;1.1;NW;1007.7;10.0;16.8;0.0;0.0;5.1;61.5;61.5;0;1
7;01-08-2011 03:14;30;50;23.3;66;16.0;1010.8;0.0;0.0;E;1007.6;9.7;16.0;0.0;0.0;5.1;61.5;61.5;0;0
8;01-08-2011 03:44;30;50;23.2;69;15.2;1010.8;0.0;0.0;N;1007.6;9.6;15.2;0.0;0.0;5.1;61.5;61.5;0;0
9;01-08-2011 04:14;30;50;23.2;69;15.4;1010.8;0.0;1.1;W;1007.6;9.8;15.4;0.0;0.0;5.1;61.5;61.5;0;1
10;01-08-2011 04:44;30;50;23.1;70;15.2;1010.7;0.0;2.5;SE;1007.5;9.8;15.2;0.0;0.0;5.1;61.5;61.5;0;1
11;01-08-2011 05:14;30;51;23.0;73;14.9;1010.7;0.0;2.5;NE;1007.5;10.1;14.9;0.0;0.0;5.1;61.5;61.5;0;1
12;01-08-2011 05:44;30;51;23.0;74;14.6;1010.6;1.1;2.5;NW;1007.4;10.0;14.6;0.0;0.0;4.8;61.5;61.5;1;1
13;01-08-2011 06:14;30;51;23.0;75;14.3;1010.6;1.1;3.6;NE;1007.4;9.9;14.3;0.0;0.0;4.8;61.5;61.5;1;1
14;01-08-2011 06:44;30;51;23.0;77;14.0;1010.7;0.0;1.1;NE;1007.5;10.0;14.0;0.0;0.0;4.8;61.5;61.5;0;1
15;01-08-2011 07:14;30;52;22.9;77;14.3;1010.9;0.0;1.1;S;1007.7;10.3;14.3;0.0;0.0;4.8;61.5;61.5;0;1
16;01-08-2011 07:44;30;51;22.9;77;14.4;1010.8;1.1;3.6;SEE;1007.6;10.4;14.4;0.0;0.0;4.8;61.5;61.5;1;1
17;01-08-2011 08:14;30;51;22.8;77;14.7;1010.8;0.0;2.5;W;1007.6;10.7;14.7;0.0;0.0;4.8;61.5;61.5;0;1
18;01-08-2011 08:44;30;52;22.9;71;16.9;1010.9;1.1;3.6;S;1007.7;11.6;16.9;0.0;0.0;4.8;61.5;61.5;1;1
19;01-08-2011 09:14;30;51;23.0;64;19.0;1010.8;1.1;2.5;S;1007.6;12.1;19.0;0.0;0.0;4.8;61.5;61.5;1;1
20;01-08-2011 09:44;30;51;23.1;56;21.5;1010.8;3.6;5.0;N;1007.6;12.4;21.5;0.0;0.0;4.8;61.5;61.5;1;1
21;01-08-2011 10:14;30;51;23.1;53;22.9;1010.8;1.1;5.0;NW;1007.6;12.8;22.9;0.0;0.0;4.8;61.5;61.5;1;1
22;01-08-2011 10:44;30;51;23.1;48;24.8;1010.7;1.1;2.5;NE;1007.5;13.1;24.8;0.0;0.0;4.8;61.5;61.5;1;1
23;01-08-2011 11:14;30;51;23.3;43;26.3;1010.6;0.0;2.5;SE;1007.4;12.8;26.3;0.0;0.0;4.8;61.5;61.5;0;1
24;01-08-2011 11:44;30;51;23.4;42;26.8;1010.4;1.1;5.0;SE;1007.2;12.8;26.8;0.0;0.0;4.8;61.5;61.5;1;1
25;01-08-2011 12:14;30;52;23.5;41;27.6;1010.2;1.1;3.6;S;1007.0;13.2;27.6;0.0;0.0;4.8;61.5;61.5;1;1
26;01-08-2011 12:44;30;52;23.5;36;29.1;1010.2;2.5;3.6;SW;1007.0;12.5;29.1;0.0;0.0;4.8;61.5;61.5;1;1
27;01-08-2011 13:14;30;53;23.7;34;29.5;1010.0;2.5;5.0;NW;1006.8;12.0;29.5;0.0;0.0;4.8;61.5;61.5;1;1
28;01-08-2011 13:44;30;53;23.8;35;29.5;1009.9;0.0;1.1;NW;1006.7;12.5;29.5;0.0;0.0;4.8;61.5;61.5;0;1
29;01-08-2011 14:14;30;50;24.0;34;30.4;1009.9;1.1;3.6;NW;1006.7;12.8;30.4;0.0;0.0;4.8;61.5;61.5;1;1
30;01-08-2011 14:44;30;49;24.1;34;30.7;1009.6;2.5;3.6;E;1006.4;13.1;30.7;0.0;0.0;4.8;61.5;61.5;1;1
31;01-08-2011 15:14;30;50;24.1;32;31.1;1009.6;2.5;5.0;W;1006.4;12.5;31.1;0.0;0.0;4.8;61.5;61.5;1;1
32;01-08-2011 15:44;30;50;24.2;34;30.7;1009.6;3.6;7.2;S;1006.4;13.1;30.7;0.0;0.0;4.8;61.5;61.5;1;2
33;01-08-2011 16:14;30;50;24.2;33;31.2;1009.3;1.1;3.6;NE;1006.1;13.1;31.2;0.0;0.0;4.8;61.5;61.5;1;1
34;01-08-2011 16:44;30;50;24.4;32;31.1;1009.2;0.0;2.5;NW;1006.0;12.5;31.1;0.0;0.0;4.8;61.5;61.5;0;1
35;01-08-2011 17:14;30;50;24.7;32;31.5;1009.1;2.5;5.0;N;1005.9;12.8;31.5;0.0;0.0;4.8;61.5;61.5;1;1
36;01-08-2011 17:44;30;50;24.8;32;31.9;1009.0;0.0;2.5;NE;1005.8;13.2;31.9;0.0;0.0;4.8;61.5;61.5;0;1
37;01-08-2011 18:14;30;50;24.9;30;32.1;1009.0;0.0;1.1;N;1005.8;12.4;32.1;0.0;0.0;4.8;61.5;61.5;0;1
38;01-08-2011 18:44;30;47;25.0;35;27.5;1009.0;0.0;2.5;NW;1005.8;10.7;27.5;0.0;0.0;4.8;61.5;61.5;0;1
39;01-08-2011 19:14;30;46;25.1;37;26.5;1008.8;0.0;1.1;NW;1005.6;10.7;26.5;0.0;0.0;4.8;61.5;61.5;0;1
40;01-08-2011 19:44;30;47;25.0;36;26.1;1008.8;0.0;2.5;N;1005.6;9.9;26.1;0.0;0.0;4.8;61.5;61.5;0;1
41;01-08-2011 20:14;30;47;25.0;36;25.9;1008.7;1.1;3.6;NW;1005.5;9.7;25.9;0.0;0.0;4.8;61.5;61.5;1;1
42;01-08-2011 20:44;30;49;25.1;37;25.4;1008.8;1.1;2.5;W;1005.6;9.7;25.4;0.0;0.0;4.8;61.5;61.5;1;1
43;01-08-2011 21:14;30;49;25.1;37;25.0;1009.1;2.5;3.6;SE;1005.9;9.3;25.0;0.0;0.0;4.8;61.5;61.5;1;1
44;01-08-2011 21:44;30;49;25.2;38;24.0;1009.1;0.0;1.1;SW;1005.9;8.8;24.0;0.0;0.0;4.8;61.5;61.5;0;1
45;01-08-2011 22:14;30;48;25.2;42;22.8;1009.4;1.1;3.6;N;1006.2;9.2;22.8;0.0;0.0;4.8;61.5;61.5;1;1
46;01-08-2011 22:44;30;49;25.2;44;22.6;1009.6;0.0;1.1;NW;1006.4;9.8;22.6;0.0;0.0;4.8;61.5;61.5;0;1
47;01-08-2011 23:14;30;49;25.2;48;21.8;1009.9;0.0;1.1;NE;1006.7;10.3;21.8;0.0;0.0;4.8;61.5;61.5;0;1
48;01-08-2011 23:44;30;48;25.1;51;21.1;1009.8;0.0;2.5;E;1006.6;10.6;21.1;0.0;0.0;4.8;61.5;61.5;0;1
49;02-08-2011 00:14;30;49;24.9;54;20.3;1009.6;0.0;0.0;NW;1006.4;10.7;20.3;0.0;0.0;4.8;61.5;61.5;0;0
50;02-08-2011 00:44;30;50;24.7;56;20.1;1009.7;1.1;2.5;NW;1006.5;11.1;20.1;0.0;0.0;4.8;61.5;61.5;1;1
51;02-08-2011 01:14;30;50;24.5;59;19.5;1009.6;0.0;0.0;N;1006.4;11.3;19.5;0.0;0.0;4.8;61.5;61.5;0;0
52;02-08-2011 01:44;30;50;24.4;60;19.4;1009.5;0.0;0.0;NW;1006.3;11.5;19.4;0.0;0.0;4.8;61.5;61.5;0;0
53;02-08-2011 02:14;30;50;24.2;65;18.1;1009.7;0.0;0.0;N;1006.5;11.4;18.1;0.0;0.0;4.8;61.5;61.5;0;0
54;02-08-2011 02:44;30;51;24.2;67;17.6;1009.7;0.0;0.0;NW;1006.5;11.4;17.6;0.0;0.0;4.8;61.5;61.5;0;0
55;02-08-2011 03:14;30;51;24.1;72;16.6;1009.6;0.0;0.0;N;1006.4;11.6;16.6;0.0;0.0;4.8;61.5;61.5;0;0
56;02-08-2011 03:44;30;51;24.0;74;16.3;1009.6;0.0;0.0;N;1006.4;11.7;16.3;0.0;0.0;4.8;61.5;61.5;0;0
57;02-08-2011 04:14;30;51;24.0;73;16.4;1009.7;0.0;0.0;N;1006.5;11.6;16.4;0.0;0.0;4.8;61.5;61.5;0;0
58;02-08-2011 04:44;30;52;23.9;77;15.8;1009.4;0.0;0.0;N;1006.2;11.8;15.8;0.0;0.0;4.8;61.5;61.5;0;0
59;02-08-2011 05:14;30;52;23.9;79;15.3;1009.2;0.0;0.0;NW;1006.0;11.7;15.3;0.0;0.0;4.8;61.5;61.5;0;0
60;02-08-2011 05:44;30;52;23.8;82;14.5;1009.3;0.0;0.0;N;1006.1;11.5;14.5;0.0;0.0;4.8;61.5;61.5;0;0
61;02-08-2011 06:14;30;53;23.8;83;14.2;1009.0;0.0;0.0;N;1005.8;11.4;14.2;0.0;0.0;4.8;61.5;61.5;0;0
62;02-08-2011 06:44;30;53;23.7;84;14.5;1009.0;0.0;0.0;N;1005.8;11.8;14.5;0.0;0.0;4.8;61.5;61.5;0;0
63;02-08-2011 07:14;30;53;23.7;84;14.6;1009.4;0.0;0.0;NW;1006.2;11.9;14.6;0.0;0.0;4.8;61.5;61.5;0;0
64;02-08-2011 07:44;30;53;23.7;82;16.2;1009.3;0.0;0.0;NW;1006.1;13.1;16.2;0.0;0.0;4.8;61.5;61.5;0;0
65;02-08-2011 08:14;30;54;23.6;76;17.4;1009.5;0.0;0.0;NW;1006.3;13.1;17.4;0.0;0.0;4.8;61.5;61.5;0;0
66;02-08-2011 08:44;30;55;23.7;69;20.5;1009.8;0.0;0.0;NW;1006.6;14.6;20.5;0.0;0.0;4.8;61.5;61.5;0;0
67;02-08-2011 09:14;30;55;23.7;63;21.2;1010.5;0.0;0.0;NW;1007.3;13.9;21.2;0.0;0.0;4.8;61.5;61.5;0;0
68;02-08-2011 09:44;30;55;23.7;60;23.0;1010.4;0.0;0.0;E;1007.2;14.8;23.0;0.0;0.0;4.8;61.5;61.5;0;0
69;02-08-2011 10:14;30;55;23.8;57;23.4;1010.2;0.0;0.0;NW;1007.0;14.4;23.4;0.0;0.0;4.8;61.5;61.5;0;0
70;02-08-2011 10:44;30;55;23.9;57;24.3;1010.4;0.0;0.0;S;1007.2;15.3;24.3;0.0;0.0;4.8;61.5;61.5;0;0
71;02-08-2011 11:14;30;54;24.1;50;26.6;1010.4;0.0;0.0;S;1007.2;15.4;26.6;0.0;0.0;4.8;61.5;61.5;0;0
72;02-08-2011 11:44;30;54;24.4;45;29.0;1010.4;0.0;0.0;N;1007.2;15.9;29.0;0.0;0.0;4.8;61.5;61.5;0;0
73;02-08-2011 12:14;30;54;24.6;42;31.1;1010.1;0.0;0.0;E;1006.9;16.7;31.1;0.0;0.0;4.8;61.5;61.5;0;0
74;02-08-2011 12:44;30;55;25.0;35;31.8;1009.9;0.0;0.0;NW;1006.7;14.5;31.8;0.0;0.0;4.8;61.5;61.5;0;0
75;02-08-2011 13:14;30;54;25.1;36;31.3;1009.7;0.0;0.0;NW;1006.5;14.5;31.3;0.0;0.0;4.8;61.5;61.5;0;0
76;02-08-2011 13:44;30;53;25.3;37;31.0;1009.7;0.0;0.0;W;1006.5;14.6;31.0;0.0;0.0;4.8;61.5;61.5;0;0
77;02-08-2011 14:14;30;53;25.4;38;30.5;1009.4;0.0;2.5;SE;1006.2;14.6;30.5;0.0;0.0;4.8;61.5;61.5;0;1
78;02-08-2011 14:44;30;53;25.7;38;30.0;1008.3;1.1;2.5;N;1005.1;14.2;30.0;0.0;0.0;4.8;61.5;61.5;1;1
79;02-08-2011 15:14;30;51;25.9;35;30.2;1008.6;2.5;5.0;SW;1005.4;13.1;30.2;0.0;0.0;4.8;61.5;61.5;1;1
80;02-08-2011 15:44;30;48;26.0;36;30.4;1007.7;2.5;5.0;NW;1004.5;13.7;30.4;0.0;0.0;4.8;61.5;61.5;1;1
81;02-08-2011 16:14;30;48;26.2;32;32.2;1008.3;3.6;6.1;NW;1005.1;13.5;32.2;0.0;0.0;4.8;61.5;61.5;1;2
82;02-08-2011 16:44;30;48;26.3;34;31.3;1008.5;3.6;8.6;E;1005.3;13.6;31.3;0.0;0.0;4.8;61.5;61.5;1;2
83;02-08-2011 17:14;30;48;26.5;30;31.5;1008.7;1.1;3.6;NW;1005.5;11.9;31.5;0.0;0.0;4.8;61.5;61.5;1;1
84;02-08-2011 17:44;30;46;26.5;35;30.2;1009.1;2.5;3.6;N;1005.9;13.1;30.2;0.0;0.0;4.8;61.5;61.5;1;1
85;02-08-2011 18:14;30;46;26.5;40;29.6;1009.1;0.0;2.5;NW;1005.9;14.6;29.6;0.0;0.0;4.8;61.5;61.5;0;1
86;02-08-2011 18:44;30;48;26.5;42;28.9;1008.6;0.0;1.1;SW;1005.4;14.7;28.9;0.0;0.0;4.8;61.5;61.5;0;1
87;02-08-2011 19:14;30;48;26.7;38;29.0;1008.5;1.1;3.6;NE;1005.3;13.3;29.0;0.0;0.0;4.8;61.5;61.5;1;1
88;02-08-2011 19:44;30;48;26.7;45;28.0;1008.6;0.0;0.0;NE;1005.4;15.0;28.0;0.0;0.0;4.8;61.5;61.5;0;0
89;02-08-2011 20:14;30;48;26.5;44;26.9;1008.7;0.0;0.0;NE;1005.5;13.7;26.9;0.0;0.0;4.8;61.5;61.5;0;0
90;02-08-2011 20:44;30;47;26.5;45;26.2;1008.7;0.0;0.0;N;1005.5;13.4;26.2;0.0;0.0;4.8;61.5;61.5;0;0
91;02-08-2011 21:14;30;49;26.5;49;25.2;1008.8;0.0;0.0;N;1005.6;13.8;25.2;0.0;0.0;4.8;61.5;61.5;0;0
92;02-08-2011 21:44;30;50;26.5;51;24.4;1008.9;0.0;0.0;NW;1005.7;13.6;24.4;0.0;0.0;4.8;61.5;61.5;0;0
93;02-08-2011 22:14;30;48;26.3;52;24.3;1009.0;0.0;0.0;N;1005.8;13.8;24.3;0.0;0.0;4.8;61.5;61.5;0;0
94;02-08-2011 22:44;30;49;26.3;54;23.9;1009.0;0.0;0.0;NW;1005.8;14.1;23.9;0.0;0.0;4.8;61.5;61.5;0;0
95;02-08-2011 23:14;30;49;26.1;55;23.7;1009.1;0.0;0.0;NE;1005.9;14.2;23.7;0.0;0.0;4.8;61.5;61.5;0;0
96;02-08-2011 23:44;30;51;25.9;66;23.2;1009.5;0.0;0.0;N;1006.3;16.5;23.2;0.0;0.0;4.8;61.5;61.5;0;0
97;03-08-2011 00:14;30;52;25.8;69;22.4;1009.3;0.0;0.0;N;1006.1;16.5;22.4;0.0;0.0;4.8;61.5;61.5;0;0
98;03-08-2011 00:44;30;52;25.7;72;21.7;1009.3;0.0;0.0;N;1006.1;16.5;21.7;0.0;0.0;4.8;61.5;61.5;0;0
99;03-08-2011 01:14;30;53;25.6;71;21.9;1009.4;0.0;0.0;NW;1006.2;16.4;21.9;0.0;0.0;4.8;61.5;61.5;0;0
100;03-08-2011 01:44;30;53;25.5;65;22.4;1009.4;0.0;0.0;NW;1006.2;15.5;22.4;0.0;0.0;4.8;61.5;61.5;0;0
101;03-08-2011 02:14;30;53;25.4;65;22.5;1009.3;0.0;0.0;SW;1006.1;15.6;22.5;0.0;0.0;4.8;61.5;61.5;0;0
102;03-08-2011 02:44;30;53;25.4;70;21.8;1008.7;0.0;0.0;SW;1005.5;16.1;21.8;0.0;0.0;4.8;61.5;61.5;0;0
103;03-08-2011 03:14;30;53;25.3;75;20.8;1008.0;0.0;0.0;N;1004.8;16.2;20.8;0.0;0.0;4.8;61.5;61.5;0;0
104;03-08-2011 03:44;30;53;25.3;74;20.7;1008.8;0.0;2.5;NE;1005.6;15.9;20.7;0.0;0.0;4.8;61.5;61.5;0;1
105;03-08-2011 04:14;30;54;25.2;73;20.8;1009.2;0.0;1.1;E;1006.0;15.8;20.8;0.0;0.0;4.8;61.5;61.5;0;1
106;03-08-2011 04:44;30;54;25.2;74;20.5;1009.6;0.0;1.1;E;1006.4;15.7;20.5;0.0;0.0;4.8;61.5;61.5;0;1
107;03-08-2011 05:14;30;54;25.2;79;19.9;1009.8;0.0;1.1;NW;1006.6;16.2;19.9;0.0;0.0;4.8;61.5;61.5;0;1
108;03-08-2011 05:44;30;54;25.1;84;19.5;1010.2;1.1;2.5;NW;1007.0;16.7;19.5;0.3;0.3;5.1;61.8;61.8;1;1
109;03-08-2011 06:14;30;54;25.1;89;18.9;1010.7;0.0;1.1;NE;1007.5;17.1;18.9;1.5;1.5;6.3;63.0;63.0;0;1
110;03-08-2011 06:44;30;54;25.1;93;18.4;1010.7;0.0;1.1;NE;1007.5;17.3;18.4;3.0;3.3;8.1;64.8;64.8;0;1
111;03-08-2011 07:14;30;55;25.1;94;18.2;1010.7;0.0;1.1;NW;1007.5;17.2;18.2;3.0;4.5;9.3;66.0;66.0;0;1
112;03-08-2011 07:44;30;55;25.1;95;18.5;1011.0;1.1;2.5;N;1007.8;17.7;18.5;1.5;4.8;9.6;66.0;66.3;1;1
113;03-08-2011 08:14;30;60;25.0;95;18.9;1010.9;1.1;1.1;N;1007.7;18.1;18.9;0.6;5.1;9.9;66.3;66.6;1;1
114;03-08-2011 08:44;30;63;24.9;93;19.2;1011.0;1.1;2.5;N;1007.8;18.1;19.2;0.3;5.1;9.9;66.3;66.6;1;1
115;03-08-2011 09:14;30;64;24.9;92;19.3;1011.1;0.0;1.1;NW;1007.9;18.0;19.3;0.0;5.1;9.9;66.3;66.6;0;1
116;03-08-2011 09:44;30;65;24.6;91;19.9;1011.2;1.1;3.6;N;1008.0;18.4;19.9;0.0;5.1;9.9;66.3;66.6;1;1
117;03-08-2011 10:14;30;66;24.4;89;20.8;1011.3;0.0;1.1;NE;1008.1;18.9;20.8;0.0;5.1;9.9;66.3;66.6;0;1
118;03-08-2011 10:44;30;67;24.6;78;22.9;1011.4;1.1;3.6;NE;1008.2;18.9;22.9;0.3;5.4;10.2;66.6;66.9;1;1
119;03-08-2011 11:14;30;67;24.8;75;23.8;1011.6;0.0;1.1;N;1008.4;19.1;23.8;0.3;5.4;10.2;66.6;66.9;0;1
120;03-08-2011 11:44;30;67;24.9;68;25.3;1011.9;1.1;3.6;NWW;1008.7;19.0;25.3;0.0;5.4;10.2;66.6;66.9;1;1
121;03-08-2011 12:14;30;65;25.1;60;26.4;1011.7;2.5;7.2;NW;1008.5;18.0;26.4;0.0;5.4;10.2;66.6;66.9;1;2
122;03-08-2011 12:44;30;64;25.1;70;23.8;1011.9;1.1;3.6;NE;1008.7;18.0;23.8;0.0;5.4;10.2;66.6;66.9;1;1
123;03-08-2011 13:14;30;64;25.1;70;23.2;1011.9;1.1;2.5;N;1008.7;17.5;23.2;0.0;5.4;10.2;66.6;66.9;1;1
124;03-08-2011 13:44;30;64;25.1;68;24.2;1011.9;1.1;1.1;W;1008.7;17.9;24.2;0.0;5.4;10.2;66.6;66.9;1;1
125;03-08-2011 14:14;30;64;25.3;63;25.6;1011.9;5.0;8.6;NW;1008.7;18.1;25.6;0.0;5.4;10.2;66.6;66.9;1;2
126;03-08-2011 14:44;30;64;25.4;62;26.5;1011.8;2.5;5.0;NE;1008.6;18.7;26.5;0.0;5.4;10.2;66.6;66.9;1;1
127;03-08-2011 15:14;30;64;25.5;57;27.3;1011.8;2.5;5.0;S;1008.6;18.1;27.3;0.0;5.4;10.2;66.6;66.9;1;1
128;03-08-2011 15:44;30;63;25.6;53;29.3;1011.8;0.0;2.5;NW;1008.6;18.8;29.3;0.0;5.4;10.2;66.6;66.9;0;1
129;03-08-2011 16:14;30;63;25.7;47;30.3;1011.7;0.0;1.1;N;1008.5;17.8;30.3;0.0;5.4;10.2;66.6;66.9;0;1
130;03-08-2011 16:44;30;63;25.7;47;31.2;1011.5;1.1;3.6;SE;1008.3;18.6;31.2;0.0;5.4;10.2;66.6;66.9;1;1
131;03-08-2011 17:14;30;62;25.8;49;29.5;1011.5;1.1;2.5;NE;1008.3;17.7;29.5;0.0;5.4;10.2;66.6;66.9;1;1
132;03-08-2011 17:44;30;62;25.8;44;31.8;1011.5;1.1;2.5;NE;1008.3;18.1;31.8;0.0;5.4;10.2;66.6;66.9;1;1
133;03-08-2011 18:14;30;61;25.9;43;31.5;1011.4;0.0;2.5;N;1008.2;17.4;31.5;0.0;5.4;10.2;66.6;66.9;0;1
134;03-08-2011 18:44;30;61;25.9;51;27.3;1011.4;0.0;1.1;NW;1008.2;16.3;27.3;0.0;5.4;10.2;66.6;66.9;0;1
135;03-08-2011 19:14;30;59;26.2;49;28.1;1011.3;1.1;2.5;N;1008.1;16.4;28.1;0.0;5.4;10.2;66.6;66.9;1;1
136;03-08-2011 19:44;30;58;26.3;52;26.8;1011.3;0.0;0.0;N;1008.1;16.2;26.8;0.0;5.4;9.9;66.6;66.9;0;0
137;03-08-2011 20:14;30;59;26.3;52;26.7;1011.3;0.0;0.0;E;1008.1;16.1;26.7;0.0;5.4;9.9;66.6;66.9;0;0
138;03-08-2011 20:44;30;59;26.5;55;25.7;1011.6;0.0;0.0;NE;1008.4;16.0;25.7;0.0;5.4;9.9;66.6;66.9;0;0
139;03-08-2011 21:14;30;60;26.5;59;24.9;1011.7;0.0;0.0;N;1008.5;16.4;24.9;0.0;5.4;9.9;66.6;66.9;0;0
140;03-08-2011 21:44;30;60;26.5;59;25.1;1011.9;0.0;0.0;N;1008.7;16.6;25.1;0.0;5.4;9.9;66.6;66.9;0;0
141;03-08-2011 22:14;30;61;26.7;65;24.1;1012.2;0.0;0.0;N;1009.0;17.1;24.1;0.0;5.4;9.9;66.6;66.9;0;0
142;03-08-2011 22:44;30;61;26.8;63;24.0;1012.7;1.1;2.5;SW;1009.5;16.6;24.0;0.0;5.4;9.6;66.6;66.9;1;1
143;03-08-2011 23:14;30;58;26.7;57;23.9;1012.9;1.1;3.6;NW;1009.7;14.9;23.9;0.0;5.4;8.7;66.6;66.9;1;1
144;03-08-2011 23:44;30;58;26.5;57;23.5;1012.9;0.0;1.1;N;1009.7;14.5;23.5;0.0;5.4;8.7;66.6;66.9;0;1
145;04-08-2011 00:14;30;58;26.4;57;22.9;1012.8;0.0;1.1;W;1009.6;14.0;22.9;0.0;5.4;8.7;66.6;66.9;0;1
146;04-08-2011 00:44;30;57;26.2;57;22.0;1012.8;0.0;0.0;S;1009.6;13.1;22.0;0.0;5.4;8.7;66.6;66.9;0;0
147;04-08-2011 01:14;30;57;26.1;61;21.3;1012.9;0.0;0.0;N;1009.7;13.5;21.3;0.0;5.4;8.7;66.6;66.9;0;0
148;04-08-2011 01:44;30;57;26.0;62;21.4;1013.5;0.0;1.1;N;1010.3;13.8;21.4;0.0;5.4;8.7;66.6;66.9;0;1
149;04-08-2011 02:14;30;58;25.9;66;21.0;1013.2;0.0;0.0;N;1010.0;14.4;21.0;0.0;5.4;8.7;66.6;66.9;0;0
150;04-08-2011 02:44;30;58;25.9;72;20.4;1013.1;0.0;0.0;N;1009.9;15.2;20.4;0.0;5.4;8.7;66.6;66.9;0;0
151;04-08-2011 03:14;30;58;25.8;71;20.4;1013.0;0.0;0.0;SE;1009.8;15.0;20.4;0.0;5.4;8.7;66.6;66.9;0;0
152;04-08-2011 03:44;30;58;25.7;75;20.2;1012.7;0.0;0.0;N;1009.5;15.7;20.2;0.0;5.4;8.7;66.6;66.9;0;0
153;04-08-2011 04:14;30;58;25.7;74;20.1;1012.7;0.0;0.0;N;1009.5;15.3;20.1;0.0;5.4;8.7;66.6;66.9;0;0
154;04-08-2011 04:44;30;58;25.7;77;19.1;1012.6;0.0;0.0;N;1009.4;15.0;19.1;0.0;5.4;8.7;66.6;66.9;0;0
155;04-08-2011 05:14;30;58;25.6;81;18.1;1012.6;0.0;0.0;N;1009.4;14.8;18.1;0.0;5.4;8.7;66.6;66.9;0;0
156;04-08-2011 05:44;30;58;25.6;82;18.0;1012.5;0.0;0.0;N;1009.3;14.9;18.0;0.0;5.1;8.7;66.6;66.9;0;0
157;04-08-2011 06:14;30;58;25.5;83;17.7;1012.4;0.0;0.0;N;1009.2;14.8;17.7;0.0;3.9;8.7;66.6;66.9;0;0
158;04-08-2011 06:44;30;58;25.5;85;18.3;1012.4;1.1;3.6;N;1009.2;15.8;18.3;0.0;2.1;8.7;66.6;66.9;1;1
159;04-08-2011 07:14;30;59;25.5;85;18.3;1012.4;1.1;2.5;N;1009.2;15.8;18.3;0.0;0.9;8.7;66.6;66.9;1;1
160;04-08-2011 07:44;30;59;25.5;80;18.2;1012.3;3.6;6.1;N;1009.1;14.7;18.2;0.0;0.6;8.7;66.6;66.9;1;2
161;04-08-2011 08:14;30;58;25.4;77;18.8;1012.4;1.1;2.5;SE;1009.2;14.7;18.8;0.0;0.3;8.7;66.6;66.9;1;1
162;04-08-2011 08:44;30;57;25.5;74;19.4;1012.3;2.5;3.6;NW;1009.1;14.7;19.4;0.0;0.3;8.7;66.6;66.9;1;1
163;04-08-2011 09:14;30;57;25.5;72;20.5;1012.1;2.5;5.0;N;1008.9;15.3;20.5;0.0;0.3;8.7;66.6;66.9;1;1
164;04-08-2011 09:44;30;58;25.6;65;23.0;1012.3;1.1;2.5;N;1009.1;16.1;23.0;0.0;0.3;8.4;66.6;66.9;1;1
165;04-08-2011 10:14;30;57;25.6;63;22.8;1012.3;3.6;6.1;E;1009.1;15.4;22.8;0.0;0.3;8.4;66.6;66.9;1;2
166;04-08-2011 10:44;30;58;25.6;64;23.3;1012.3;7.2;12.2;N;1009.1;16.1;22.8;0.0;0.0;8.4;66.6;66.9;2;3
167;04-08-2011 11:14;30;58;25.5;59;24.6;1012.0;1.1;3.6;E;1008.8;16.1;24.6;0.0;0.0;8.4;66.6;66.9;1;1
168;04-08-2011 11:44;30;58;25.6;59;24.6;1011.9;5.0;7.2;NE;1008.7;16.1;24.6;0.0;0.0;8.4;66.6;66.9;1;2
169;04-08-2011 12:14;30;57;25.6;57;25.0;1011.8;2.5;6.1;N;1008.6;15.9;25.0;0.0;0.0;8.4;66.6;66.9;1;2
170;04-08-2011 12:44;30;57;25.6;56;25.5;1011.6;1.1;3.6;NE;1008.4;16.1;25.5;0.0;0.0;8.4;66.6;66.9;1;1
171;04-08-2011 13:14;30;57;25.8;48;27.6;1011.2;3.6;7.2;SW;1008.0;15.6;27.6;0.0;0.0;8.4;66.6;66.9;1;2
172;04-08-2011 13:44;30;56;25.9;54;25.3;1011.1;3.6;7.2;SWW;1007.9;15.4;25.3;0.0;0.0;8.4;66.6;66.9;1;2
173;04-08-2011 14:14;30;56;25.9;55;24.8;1011.0;3.6;8.6;NE;1007.8;15.2;24.8;0.0;0.0;8.4;66.6;66.9;1;2
174;04-08-2011 14:44;30;57;25.9;65;23.5;1011.2;2.5;3.6;NW;1008.0;16.6;23.5;0.0;0.0;8.4;66.6;66.9;1;1
175;04-08-2011 15:14;30;60;25.8;75;21.4;1011.3;2.5;6.1;E;1008.1;16.8;21.4;0.6;0.6;9.0;67.2;67.5;1;2
176;04-08-2011 15:44;30;63;25.6;78;21.1;1011.0;3.6;7.2;N;1007.8;17.1;21.1;0.6;0.6;7.5;67.2;67.5;1;2
177;04-08-2011 16:14;30;64;25.5;80;21.5;1010.6;2.5;3.6;SW;1007.4;17.9;21.5;0.3;0.9;7.8;67.5;67.8;1;1
178;04-08-2011 16:44;30;65;25.5;80;21.7;1010.4;5.0;11.2;SW;1007.2;18.1;21.7;0.6;1.2;8.1;67.8;68.1;1;2
179;04-08-2011 17:14;30;64;25.6;81;21.3;1010.0;5.0;8.6;N;1006.8;17.9;21.3;0.3;1.2;8.1;67.8;68.1;1;2
180;04-08-2011 17:44;30;64;25.6;80;21.5;1009.8;2.5;5.0;E;1006.6;17.9;21.5;0.0;1.2;8.1;67.8;68.1;1;1
181;04-08-2011 18:14;30;64;25.6;82;21.3;1009.9;1.1;3.6;SE;1006.7;18.1;21.3;0.0;1.2;6.9;67.8;68.1;1;1
182;04-08-2011 18:44;30;65;25.6;85;20.9;1009.8;2.5;5.0;NW;1006.6;18.3;20.9;0.0;1.2;6.9;67.8;68.1;1;1
183;04-08-2011 19:14;30;65;25.7;85;21.0;1009.7;3.6;8.6;SEE;1006.5;18.4;21.0;0.0;1.2;6.9;67.8;68.1;1;2
184;04-08-2011 19:44;30;66;25.8;89;20.7;1009.7;1.1;7.2;NW;1006.5;18.8;20.7;0.0;1.2;6.9;67.8;68.1;1;2
185;04-08-2011 20:14;30;66;25.8;88;20.7;1009.6;1.1;3.6;N;1006.4;18.7;20.7;0.0;1.2;6.9;67.8;68.1;1;1
186;04-08-2011 20:44;30;66;25.9;90;20.6;1009.4;1.1;2.5;SE;1006.2;18.9;20.6;0.0;1.2;6.9;67.8;68.1;1;1
187;04-08-2011 21:14;30;67;25.9;90;20.8;1009.2;2.5;5.0;NW;1006.0;19.1;20.8;0.0;1.2;6.9;67.8;68.1;1;1
188;04-08-2011 21:44;30;65;26.0;89;20.9;1009.4;1.1;3.6;W;1006.2;19.0;20.9;0.0;1.2;6.9;67.8;68.1;1;1
189;04-08-2011 22:14;30;65;26.2;86;21.1;1009.7;1.1;3.6;S;1006.5;18.7;21.1;0.0;1.2;6.9;67.8;68.1;1;1
190;04-08-2011 22:44;30;65;26.1;86;21.0;1009.6;0.0;3.6;N;1006.4;18.6;21.0;0.0;1.2;6.9;67.8;68.1;0;1
191;04-08-2011 23:14;30;65;26.0;88;20.8;1009.7;2.5;7.2;---;1006.5;18.8;20.8;0.0;1.2;6.9;67.8;68.1;1;2
192;04-08-2011 23:44;30;65;25.9;88;20.7;1009.7;1.1;2.5;SE;1006.5;18.7;20.7;0.0;1.2;6.9;67.8;68.1;1;1
193;05-08-2011 00:14;30;65;25.9;88;20.8;1009.7;0.0;2.5;NW;1006.5;18.8;20.8;0.0;1.2;6.9;67.8;68.1;0;1
194;05-08-2011 00:44;30;65;25.8;88;20.9;1009.6;1.1;2.5;N;1006.4;18.9;20.9;0.0;1.2;6.9;67.8;68.1;1;1
195;05-08-2011 01:14;30;65;25.7;91;20.0;1009.9;0.0;0.0;N;1006.7;18.5;20.0;2.7;3.9;9.6;70.5;70.8;0;0
196;05-08-2011 01:44;30;65;25.7;95;19.6;1010.0;0.0;0.0;N;1006.8;18.8;19.6;2.7;3.9;9.6;70.5;70.8;0;0
197;05-08-2011 02:14;30;65;25.6;95;18.6;1010.2;0.0;0.0;N;1007.0;17.8;18.6;0.3;4.2;9.9;70.8;71.1;0;0
198;05-08-2011 02:44;30;64;25.6;96;18.1;1010.2;0.0;0.0;N;1007.0;17.5;18.1;0.3;4.2;9.9;70.8;71.1;0;0
199;05-08-2011 03:14;30;64;25.5;96;18.0;1010.1;0.0;0.0;N;1006.9;17.4;18.0;0.0;4.2;9.9;70.8;71.1;0;0
200;05-08-2011 03:44;30;64;25.5;96;18.1;1009.9;0.0;0.0;N;1006.7;17.5;18.1;0.0;4.2;9.9;70.8;71.1;0;0
201;05-08-2011 04:14;30;64;25.4;96;18.1;1009.7;0.0;0.0;N;1006.5;17.5;18.1;0.0;4.2;9.9;70.8;71.1;0;0
202;05-08-2011 04:44;30;64;25.4;97;18.1;1009.7;0.0;0.0;N;1006.5;17.6;18.1;0.0;4.2;9.9;70.8;71.1;0;0
203;05-08-2011 05:14;30;64;25.4;97;18.3;1009.5;0.0;0.0;N;1006.3;17.8;18.3;0.0;4.2;9.9;70.8;71.1;0;0
204;05-08-2011 05:44;30;64;25.4;96;18.3;1009.6;0.0;0.0;NE;1006.4;17.7;18.3;0.0;4.2;9.9;70.8;71.1;0;0
205;05-08-2011 06:14;30;64;25.3;95;18.2;1009.6;0.0;1.1;NE;1006.4;17.4;18.2;0.0;4.2;9.9;70.8;71.1;0;1
206;05-08-2011 06:44;30;64;25.3;96;18.3;1009.5;0.0;0.0;N;1006.3;17.7;18.3;0.0;4.2;9.9;70.8;71.1;0;0
207;05-08-2011 07:14;30;64;25.3;95;18.1;1009.4;0.0;0.0;N;1006.2;17.3;18.1;1.5;5.7;11.1;72.3;72.6;0;0
208;05-08-2011 07:44;30;64;25.3;94;17.6;1009.5;1.1;3.6;NW;1006.3;16.6;17.6;1.8;6.0;11.4;72.6;72.9;1;1
209;05-08-2011 08:14;30;64;25.1;95;17.5;1009.6;1.1;2.5;NW;1006.4;16.7;17.5;0.9;6.6;12.0;73.2;73.5;1;1
210;05-08-2011 08:44;30;65;25.1;96;17.7;1009.5;0.0;2.5;SE;1006.3;17.1;17.7;0.9;6.9;12.3;73.5;73.8;0;1
211;05-08-2011 09:14;30;65;25.1;97;18.1;1009.6;1.1;3.6;N;1006.4;17.6;18.1;0.6;7.2;12.6;73.8;74.1;1;1
212;05-08-2011 09:44;30;65;25.0;97;18.1;1009.4;0.0;2.5;E;1006.2;17.6;18.1;0.6;7.5;12.9;74.1;74.4;0;1
213;05-08-2011 10:14;30;67;24.9;97;18.9;1009.4;0.0;1.1;E;1006.2;18.4;18.9;0.3;7.5;12.9;74.1;74.4;0;1
214;05-08-2011 10:44;30;66;25.1;91;21.0;1009.3;0.0;2.5;W;1006.1;19.5;21.0;0.0;7.5;12.9;74.1;74.4;0;1
215;05-08-2011 11:14;30;66;25.3;88;21.8;1009.2;0.0;0.0;N;1006.0;19.7;21.8;0.0;7.5;12.9;74.1;74.4;0;0
216;05-08-2011 11:44;30;66;25.3;92;20.7;1009.2;0.0;0.0;NE;1006.0;19.4;20.7;1.2;8.7;14.1;75.3;75.6;0;0
217;05-08-2011 12:14;30;66;25.5;82;25.6;1008.8;0.0;0.0;NW;1005.6;22.3;25.6;1.2;8.7;14.1;75.3;75.6;0;0
218;05-08-2011 12:44;30;68;25.5;82;23.4;1008.9;0.0;2.5;NW;1005.7;20.2;23.4;0.3;9.0;14.4;75.6;75.9;0;1
219;05-08-2011 13:14;30;71;25.6;81;26.8;1008.6;1.1;3.6;NW;1005.4;23.3;26.8;0.9;9.6;15.0;76.2;76.5;1;1
220;05-08-2011 13:44;30;71;25.8;66;27.7;1008.7;1.1;3.6;N;1005.5;20.8;27.7;0.6;9.6;15.0;76.2;76.5;1;1
221;05-08-2011 14:14;30;69;26.0;65;28.9;1008.3;0.0;1.1;SE;1005.1;21.7;28.9;0.0;9.6;15.0;76.2;76.5;0;1
222;05-08-2011 14:44;30;68;26.1;55;31.2;1008.3;1.1;3.6;SE;1005.1;21.1;31.2;0.0;9.6;15.0;76.2;76.5;1;1
223;05-08-2011 15:14;30;67;26.2;58;28.7;1008.1;0.0;0.0;S;1004.9;19.7;28.7;0.0;9.0;15.0;76.2;76.5;0;0
224;05-08-2011 15:44;30;66;26.3;47;32.7;1007.8;1.1;2.5;S;1004.6;20.0;32.7;0.0;9.0;15.0;76.2;76.5;1;1
225;05-08-2011 16:14;30;64;26.4;48;30.6;1007.7;0.0;1.1;SE;1004.5;18.4;30.6;0.0;8.7;15.0;76.2;76.5;0;1
226;05-08-2011 16:44;30;63;26.3;57;27.1;1007.4;2.5;3.6;NE;1004.2;17.9;27.1;0.0;8.4;15.0;76.2;76.5;1;1
227;05-08-2011 17:14;30;63;26.5;64;25.4;1007.4;1.1;2.5;NW;1004.2;18.1;25.4;0.0;8.4;15.0;76.2;76.5;1;1
228;05-08-2011 17:44;30;65;26.5;68;26.2;1007.0;1.1;2.5;W;1003.8;19.9;26.2;0.6;9.0;15.6;76.8;77.1;1;1
229;05-08-2011 18:14;30;66;26.5;76;23.6;1007.1;0.0;0.0;NW;1003.9;19.1;23.6;0.6;9.0;15.6;76.8;77.1;0;0
230;05-08-2011 18:44;30;66;26.4;89;21.4;1007.6;0.0;1.1;NW;1004.4;19.5;21.4;6.0;15.0;21.6;82.8;83.1;0;1
231;05-08-2011 19:14;30;66;26.2;90;21.0;1006.8;0.0;2.5;NW;1003.6;19.3;21.0;6.0;15.0;21.6;82.8;83.1;0;1
232;05-08-2011 19:44;30;66;26.1;90;20.7;1006.8;1.1;5.0;SE;1003.6;19.0;20.7;0.0;15.0;21.6;82.8;83.1;1;1
233;05-08-2011 20:14;30;65;26.1;90;20.6;1006.5;0.0;1.1;S;1003.3;18.9;20.6;0.0;15.0;21.6;82.8;83.1;0;1